Wind_Speed
38 37 36 35 33 32 32 31 30 30 30 30 31 31 31 32 32 33 33 33 34 36 37 39 40 41 42 43 44 46 48 51 53 52 51 51 50 48 46 44 44 44 45 44 42 41 40 40 40 41 42 43 44 43 42 41 41 42 41 42 45 46 45
41 39 38 37 36 34 33 32 31 31 31 31 31 30 30 31 31 31 32 32 33 33 35 36 38 38 39 40 41 43 44 47 51 54 54 53 51 49 47 46 46 46 46 45 43 43 43 42 42 42 41 42 44 45 44 42 41 42 42 43 45 46 46
43 42 40 39 38 37 35 34 33 32 31 31 31 31 31 31 31 31 31 32 32 32 33 34 35 36 37 38 39 40 41 44 47 50 54 55 54 52 49 48 48 47 46 45 42 40 41 43 43 43 43 42 44 45 45 44 42 42 43 44 45 47 47
44 43 42 41 40 39 38 36 34 33 33 32 32 32 32 32 32 32 32 32 32 33 33 33 34 34 35 36 37 38 39 40 43 46 50 54 56 55 53 51 50 49 48 47 45 41 39 41 43 44 44 44 44 46 45 43 43 43 44 45 46 47 47
44 43 42 42 41 41 40 39 37 35 34 34 33 32 32 32 33 33 33 33 34 34 34 35 34 34 34 35 36 38 38 39 40 43 46 51 54 56 56 54 53 52 50 50 50 46 41 40 43 44 45 45 44 46 46 44 44 45 45 45 46 48 47
43 42 42 43 42 42 41 41 40 39 37 35 34 34 34 34 34 34 35 35 35 35 36 36 36 36 35 35 35 37 39 39 40 41 42 46 50 53 55 55 55 56 54 52 52 52 47 42 42 44 45 47 46 46 47 45 45 46 47 47 47 48 49
43 42 42 42 42 42 42 42 42 42 41 39 37 37 36 36 36 36 36 36 36 36 36 37 37 38 37 37 36 37 38 39 40 40 41 42 45 48 51 52 54 57 58 56 55 55 52 47 45 45 44 45 47 47 47 47 46 47 47 48 48 49 50
45 44 44 44 43 43 43 43 43 43 43 43 41 40 39 39 39 38 38 38 37 37 37 37 38 38 39 39 39 39 38 39 40 40 40 40 42 44 46 48 50 53 56 58 58 57 56 52 49 48 47 45 46 47 48 48 48 48 47 48 50 51 51
46 46 46 46 46 46 45 44 44 44 44 44 44 43 43 42 41 40 40 39 39 39 38 38 38 39 39 40 41 41 41 40 41 41 41 41 41 42 43 45 46 48 51 55 57 58 60 58 54 52 52 50 47 47 49 49 48 48 48 49 50 52 52
46 47 48 49 49 49 48 46 45 45 45 45 45 45 45 44 44 43 42 42 41 41 41 40 41 40 40 40 41 42 43 43 43 43 43 43 42 42 43 43 44 45 47 49 53 55 58 60 59 57 56 56 53 50 50 51 52 50 48 49 51 52 53
45 46 47 49 50 50 50 49 47 46 45 45 45 46 46 46 46 45 45 44 44 43 43 42 43 43 42 42 42 42 43 44 44 45 45 45 45 44 44 45 45 46 46 47 49 51 54 58 60 60 60 60 59 56 53 52 54 54 52 52 53 53 54
46 44 44 47 49 50 51 51 50 48 47 46 46 46 46 46 47 47 46 46 46 46 46 45 45 45 45 45 45 44 44 44 45 45 46 46 47 47 47 47 47 47 48 48 49 50 51 54 57 60 62 63 63 62 59 55 54 55 55 56 56 56 56
50 46 44 44 46 47 48 49 50 50 49 49 48 47 47 47 47 47 47 47 47 47 48 48 48 48 48 47 47 47 47 47 47 46 46 47 47 48 49 49 50 50 50 50 50 51 51 52 54 57 60 63 65 65 64 61 58 56 55 56 58 59 59
56 53 50 48 46 47 47 46 48 50 50 50 51 51 50 50 49 48 48 47 48 49 49 49 50 50 50 50 50 50 50 50 50 49 49 49 49 49 50 50 51 51 51 51 52 52 52 53 54 55 58 60 63 65 66 66 64 61 59 57 57 59 61
58 57 56 54 52 51 48 46 46 47 48 49 52 54 54 53 52 51 50 50 50 51 51 51 51 51 51 51 51 52 52 52 52 52 52 52 52 52 52 52 52 52 53 53 53 53 54 54 54 55 57 59 61 64 66 67 67 67 65 62 60 59 60
58 55 54 54 56 55 51 48 47 48 50 53 55 57 57 56 55 54 53 53 53 53 53 53 53 53 52 53 53 53 53 54 55 55 55 54 54 54 54 54 54 54 54 54 54 54 55 55 56 56 57 58 60 61 64 67 69 70 69 68 66 64 63
60 58 58 59 62 63 60 58 58 59 61 62 61 60 60 58 56 56 56 57 58 57 56 55 54 55 55 54 54 55 55 55 56 57 57 56 56 56 56 56 57 56 56 56 56 56 56 57 57 58 58 59 60 61 62 64 67 70 72 72 71 69 68
62 65 68 69 69 69 67 66 67 68 69 68 64 62 61 59 57 57 58 59 61 62 60 58 57 58 58 57 56 57 57 57 57 57 57 57 58 59 59 58 59 59 58 58 58 57 58 58 58 59 60 60 61 62 63 63 65 67 70 73 74 74 72
65 67 69 70 70 69 69 68 67 68 68 66 62 60 60 59 58 57 59 60 61 62 62 62 62 63 63 61 60 59 59 58 57 58 59 59 59 60 61 61 61 61 61 60 60 60 60 60 60 60 61 62 62 63 63 64 65 66 67 70 73 75 76
61 63 64 64 64 65 64 63 63 63 62 61 59 56 56 57 56 55 57 59 60 61 61 61 63 65 66 66 64 63 61 60 60 60 60 60 61 61 62 63 63 63 63 63 62 62 63 63 63 63 63 63 64 65 65 65 66 67 68 69 70 72 74
57 59 58 57 58 60 59 58 58 58 57 57 56 54 53 53 53 53 53 54 56 57 58 59 60 61 63 66 67 66 64 64 63 63 63 62 62 63 63 64 64 64 65 65 65 65 65 65 66 66 66 66 66 66 67 67 68 68 69 70 71 71 72
57 57 57 57 57 58 59 58 57 56 56 55 55 54 52 52 52 52 51 51 53 54 53 54 56 57 58 61 64 65 65 65 65 65 65 65 65 66 66 65 65 65 65 65 66 66 67 68 68 68 68 68 69 69 69 69 69 70 70 71 72 72 73
56 56 57 57 57 57 58 57 57 57 56 56 55 55 53 52 52 53 52 51 53 53 50 48 50 52 54 57 59 62 63 64 65 65 65 65 66 68 69 68 67 66 66 67 67 67 68 69 70 71 71 71 71 72 72 72 72 72 72 73 74 74 75
56 56 56 56 57 57 57 57 57 57 57 57 57 56 56 55 54 54 54 53 54 54 51 49 50 51 53 55 58 61 62 62 63 65 66 66 65 66 68 69 69 69 69 69 69 69 69 70 71 71 72 73 73 74 74 74 75 75 74 75 76 77 77
56 56 56 56 56 57 57 57 57 58 58 58 58 58 58 58 57 56 56 56 57 57 56 56 55 55 56 57 58 61 64 64 63 65 68 68 67 65 64 64 66 67 69 71 71 71 72 73 73 72 72 73 74 75 76 77 77 77 78 78 78 79 79
56 57 57 58 58 58 59 59 59 59 59 59 59 60 60 60 60 59 59 59 60 61 61 62 63 62 63 63 61 61 64 66 66 67 68 69 70 69 66 63 63 64 66 69 70 71 72 74 74 74 73 74 74 75 76 77 78 79 80 81 81 82 82
58 58 59 59 60 60 60 61 61 61 62 62 61 62 62 62 62 62 62 62 63 64 64 66 68 70 70 70 68 66 66 68 69 69 70 70 71 73 72 69 67 66 66 67 68 69 70 71 73 74 74 75 75 76 77 77 79 80 81 82 83 84 85
60 60 61 61 61 62 62 63 63 63 64 64 64 64 64 64 64 64 64 65 65 66 67 69 72 74 75 75 74 73 72 72 72 72 73 72 73 75 77 76 75 73 72 71 70 70 70 70 71 72 74 74 75 76 77 79 80 81 82 83 83 84 86
63 63 63 63 63 64 64 64 65 65 65 66 66 66 66 66 66 65 66 67 68 69 70 71 73 75 76 77 77 77 76 76 76 77 77 78 78 79 80 81 81 80 79 78 77 76 76 76 75 75 76 76 77 77 78 79 80 81 82 84 84 85 86
66 66 65 65 65 66 66 66 66 66 66 67 67 67 67 67 67 67 68 70 70 71 72 73 74 75 77 78 79 80 79 79 80 81 82 82 83 83 83 84 84 85 85 84 84 84 83 83 83 83 83 83 83 83 82 82 81 81 82 83 85 86 88
69 68 68 68 68 68 68 68 68 68 68 68 68 68 68 68 68 69 70 71 72 73 74 75 75 76 77 78 80 81 81 81 82 83 84 85 86 86 86 87 88 89 89 89 90 90 90 90 90 90 89 88 88 88 87 86 85 84 84 85 85 87 88
71 70 70 70 70 71 71 71 71 71 70 70 69 68 68 68 69 70 71 72 73 74 75 76 77 77 77 78 79 80 81 82 83 83 84 86 87 88 88 89 89 90 91 92 93 94 94 95 95 94 92 91 91 91 90 89 89 88 88 88 89 89 89
73 72 73 73 73 73 73 74 74 73 72 71 70 69 68 68 69 70 71 72 73 74 75 76 77 78 78 78 79 80 80 81 82 83 84 85 87 87 88 89 90 90 91 92 93 94 95 95 95 94 94 93 93 93 93 92 92 92 91 91 91 91 90
75 74 74 74 74 75 75 75 76 75 74 73 71 70 68 68 68 69 70 71 72 73 74 75 76 77 78 78 78 79 80 80 82 83 84 85 86 86 87 87 88 89 90 91 92 92 93 93 93 93 93 93 93 93 93 94 94 94 93 93 93 92 92
76 75 76 76 76 76 76 76 76 75 75 74 72 70 69 69 70 70 70 71 71 72 72 73 73 74 75 76 77 78 79 80 81 83 84 84 85 86 86 86 87 87 88 89 89 89 89 90 90 91 91 91 91 92 92 92 93 93 93 93 93 93 93
76 76 77 77 77 77 77 76 75 74 74 73 71 70 70 70 70 70 71 71 71 70 70 70 70 71 72 73 75 76 78 79 80 82 83 83 84 85 85 85 85 85 86 86 86 87 87 87 87 88 88 89 89 89 89 89 90 90 90 91 91 91 92
77 77 77 76 76 76 75 73 72 72 71 70 69 69 69 69 69 69 70 70 69 68 68 68 68 68 69 70 72 74 75 76 78 79 80 81 82 82 82 82 83 83 84 84 84 84 84 84 85 85 86 86 86 87 87 87 87 87 87 87 88 88 88
Wind_Direction
280 281 281 282 283 282 282 282 281 279 276 272 268 265 263 261 259 257 256 253 251 251 251 251 250 249 248 247 246 244 243 240 238 236 234 232 234 234 231 229 226 226 230 234 238 241 241 240 242 244 243 240 238 237 236 236 235 236 237 238 239 239 239
279 278 278 278 279 280 280 280 281 280 278 275 272 268 264 261 259 257 255 254 252 251 250 251 251 251 250 249 248 246 244 242 240 239 236 233 233 231 230 228 227 226 229 232 237 242 244 243 243 244 246 244 241 240 239 237 237 237 237 237 238 238 238
279 277 276 276 276 276 277 278 278 279 278 277 274 271 266 262 258 256 254 253 252 251 251 251 251 252 252 251 250 249 247 245 243 241 238 235 233 232 230 228 227 227 228 229 232 237 243 244 244 243 245 245 244 242 241 240 239 239 239 239 238 239 238
278 276 275 273 273 273 273 273 274 275 275 275 273 271 267 263 259 256 254 253 252 251 251 251 252 252 252 251 250 250 249 248 246 243 241 239 236 235 235 232 229 228 229 228 228 231 238 242 243 242 242 244 244 243 243 241 240 239 239 239 238 238 238
278 276 274 272 271 271 271 270 269 270 270 271 271 269 266 263 260 257 256 254 252 251 250 250 251 251 252 251 250 249 249 249 248 246 243 242 240 240 240 238 234 232 231 230 229 229 232 236 239 241 242 243 243 243 243 243 243 242 239 238 238 237 237
279 277 274 272 270 269 269 268 267 266 265 265 266 265 263 260 258 256 255 255 254 253 251 250 249 249 249 250 251 250 249 249 250 249 247 245 243 243 244 243 240 237 235 234 232 231 231 233 235 237 241 244 244 243 243 243 244 245 243 240 238 238 238
281 279 276 273 271 268 267 266 265 265 263 262 260 260 259 258 256 254 253 253 254 254 253 252 250 248 247 248 250 250 250 249 250 251 250 249 247 246 246 246 244 242 240 239 237 235 234 234 232 232 236 242 245 245 244 242 242 244 246 245 243 242 241
280 279 279 276 273 270 267 265 264 263 263 262 260 257 256 255 254 253 252 252 252 253 253 253 252 250 249 247 248 249 250 250 250 250 251 250 249 248 248 248 247 245 244 243 241 239 239 237 234 231 232 236 241 243 244 243 241 242 244 245 245 245 245
276 276 276 276 274 272 269 266 264 262 262 261 261 259 257 255 254 253 252 251 250 251 252 251 251 250 250 249 248 248 248 249 250 251 251 250 250 250 249 249 249 248 247 246 245 243 242 241 238 233 233 235 236 238 240 241 241 241 240 242 244 245 246
271 271 272 272 271 271 269 268 266 263 262 261 260 260 259 257 255 254 252 251 250 250 250 250 250 249 249 249 248 248 248 248 249 250 251 251 251 250 250 250 250 250 250 249 248 247 246 245 242 237 235 237 237 237 237 239 241 241 239 239 240 242 244
266 268 269 268 267 267 267 267 266 265 264 262 261 260 259 258 257 256 254 252 251 250 250 249 249 249 249 249 248 248 248 248 248 249 250 251 251 251 250 250 250 250 250 250 249 249 248 247 246 243 240 240 241 240 238 237 239 242 241 239 238 239 240
263 264 265 265 265 264 264 264 265 266 266 265 263 262 260 259 258 257 256 255 254 253 252 251 250 250 249 249 249 249 249 248 248 249 249 250 251 251 250 250 251 251 250 250 249 249 248 247 247 246 244 243 243 244 244 241 239 241 242 241 240 239 238
260 260 260 262 264 263 263 262 263 264 265 266 266 265 264 262 261 259 258 258 257 256 255 254 253 252 251 250 249 249 249 249 249 249 249 249 249 250 250 250 250 251 251 250 250 249 248 248 247 247 247 246 245 246 247 247 245 243 241 241 242 242 241
257 258 258 258 260 262 262 262 261 262 264 265 266 266 265 265 264 263 262 261 260 259 258 257 256 255 254 252 251 250 249 249 249 249 249 249 249 249 249 250 250 251 251 251 251 251 251 250 248 247 247 247 246 246 247 248 249 248 246 243 241 242 243
257 259 258 257 257 258 259 261 262 262 263 265 266 265 264 264 263 263 262 262 260 259 258 258 258 257 256 255 254 252 251 250 249 248 248 248 249 249 249 249 250 250 250 250 251 251 251 252 251 250 249 248 247 247 247 247 248 250 250 249 246 243 243
255 257 257 255 257 259 258 260 263 263 264 268 269 265 262 261 260 260 260 259 258 256 255 256 256 256 256 255 254 254 253 251 250 249 248 248 248 249 249 250 249 250 250 250 250 250 250 251 252 252 251 250 249 249 248 248 248 249 250 251 251 250 247
251 252 253 254 257 262 263 264 266 265 267 270 270 265 260 259 258 257 257 257 257 257 256 255 254 254 253 253 253 253 253 252 251 250 249 248 248 248 249 249 250 249 250 250 250 250 250 250 251 251 252 251 251 250 250 250 249 249 249 250 252 252 252
251 252 255 257 259 263 265 266 267 267 268 270 268 264 260 258 256 255 255 255 256 258 258 257 255 253 252 251 251 252 252 252 252 252 251 250 250 249 249 249 250 250 249 250 250 251 251 251 251 251 251 252 252 251 251 251 251 250 250 250 250 252 253
253 254 257 260 261 263 265 266 266 267 267 268 266 263 261 259 256 254 254 254 255 256 258 258 257 256 255 253 251 251 252 252 252 252 252 252 251 251 250 249 249 250 250 249 250 250 251 251 251 251 251 251 251 252 252 252 252 252 251 251 251 251 251
254 255 257 259 261 262 264 264 264 265 265 265 265 263 261 260 258 256 255 255 256 256 256 257 258 259 260 259 256 255 254 254 253 252 252 252 252 252 252 250 250 250 250 250 250 250 250 250 251 251 251 252 252 252 252 252 252 252 253 253 253 252 252
255 255 256 257 258 259 261 262 262 263 263 264 264 263 262 262 261 259 257 256 257 256 255 255 257 258 261 262 261 259 258 257 255 254 253 253 253 252 252 252 251 251 251 251 251 251 251 251 251 250 251 251 252 252 252 252 252 252 252 253 253 254 253
256 256 256 257 258 259 260 261 261 262 262 263 263 263 262 262 262 261 259 256 254 255 256 257 258 257 258 261 263 263 262 260 257 255 255 255 255 254 252 252 252 252 252 252 252 252 252 252 252 252 251 251 252 252 252 252 252 252 252 253 253 253 254
257 258 258 258 259 260 260 261 261 261 261 261 261 262 261 260 260 260 259 256 252 251 254 257 258 258 257 258 261 263 264 263 262 260 258 257 256 255 254 253 253 253 253 253 253 253 253 253 253 253 253 253 253 253 253 253 253 253 253 253 253 253 253
258 258 258 258 259 259 259 260 260 260 260 260 260 260 260 259 258 258 258 257 253 250 250 253 255 256 257 257 258 259 261 262 264 265 264 261 259 256 255 255 255 254 254 254 254 254 254 253 254 253 253 253 253 253 254 253 253 253 253 253 253 253 254
258 258 258 258 258 258 258 259 259 259 258 258 258 258 258 257 257 256 255 255 254 252 251 251 252 253 254 255 256 257 257 258 260 263 265 265 263 260 257 256 256 256 255 255 254 254 254 254 254 255 254 254 254 254 254 254 254 254 254 253 253 254 254
260 260 260 260 260 260 260 260 259 259 259 259 258 258 257 256 256 255 254 253 253 254 253 253 253 252 252 253 254 255 255 255 256 258 261 263 264 264 261 258 258 258 258 257 256 255 255 255 255 255 255 255 255 255 255 255 256 255 255 254 254 254 254
262 262 262 262 262 262 262 262 261 261 260 260 259 259 259 258 257 256 254 253 253 253 253 254 254 253 253 253 255 256 255 254 253 254 257 259 261 264 265 264 262 262 261 260 259 258 257 257 257 256 256 256 256 257 257 257 257 257 257 256 256 255 256
264 263 263 262 262 262 262 263 263 262 262 261 261 260 259 259 259 258 257 255 254 253 253 253 254 255 255 255 257 258 257 256 254 253 254 257 259 262 264 265 266 265 265 264 262 261 261 260 259 258 258 257 257 258 258 258 258 258 258 257 257 257 257
265 264 264 263 263 263 263 263 262 262 262 262 262 261 261 260 259 259 259 258 257 255 253 252 252 254 255 256 258 258 258 258 257 256 256 257 258 261 262 263 264 264 265 265 264 264 263 262 262 262 261 261 260 260 259 258 258 257 258 258 257 257 257
268 267 267 267 266 265 265 264 263 262 262 262 261 261 261 261 260 259 259 258 258 257 256 255 254 254 255 256 257 257 257 257 257 258 258 258 259 259 260 261 262 262 263 263 264 264 263 263 263 264 265 264 263 263 262 261 260 258 258 257 257 257 257
270 270 270 270 270 269 268 267 265 264 263 262 261 260 260 260 259 259 258 258 257 257 257 257 256 255 255 256 256 257 257 257 257 257 257 258 258 259 259 259 259 260 261 261 262 262 262 262 263 264 265 265 265 264 264 263 262 261 260 259 258 258 258
271 272 272 272 272 271 271 270 269 267 266 264 263 262 261 260 259 258 258 257 257 257 257 257 257 256 256 256 257 257 257 258 258 258 258 258 258 259 259 259 259 259 260 260 261 261 262 262 263 264 264 264 264 264 264 264 264 263 262 261 260 260 259
272 272 272 272 272 272 272 271 271 270 269 267 266 265 264 262 261 259 258 257 257 256 256 257 257 257 257 257 257 258 258 259 259 259 259 259 259 259 259 260 260 260 260 261 261 261 262 262 263 264 264 264 264 264 264 264 264 264 263 263 263 262 261
273 273 273 273 272 272 271 271 271 270 270 269 269 267 266 265 263 262 260 259 258 257 256 256 257 257 258 259 259 259 259 260 260 260 260 260 260 260 261 261 261 261 261 262 262 262 263 263 263 263 263 263 263 263 263 263 264 264 264 264 264 264 263
272 273 272 272 271 271 270 269 270 270 270 270 270 269 268 267 266 264 263 261 260 259 258 257 257 257 258 258 259 259 260 260 260 260 261 261 261 262 262 262 262 263 263 263 263 264 264 264 264 264 264 264 263 263 263 263 263 263 264 264 264 264 264
271 271 270 270 269 269 269 269 269 269 270 270 270 270 269 268 267 266 265 263 262 262 261 260 259 258 258 258 258 258 259 259 259 260 260 261 262 262 263 263 263 264 264 264 264 265 265 265 265 265 265 265 264 264 264 264 263 264 264 264 264 264 265
270 269 268 268 268 268 268 268 268 269 269 270 270 270 269 268 267 267 266 265 264 264 263 263 262 261 261 260 259 259 259 259 260 261 261 262 262 263 263 264 264 265 265 265 265 265 265 264 264 264 264 265 265 265 265 265 265 265 265 265 265 265 265
Height
10612 10611 10611 10610 10610 10610 10609 10609 10608 10607 10607 10606 10605 10605 10605 10605 10605 10605 10606 10607 10608 10608 10609 10610 10611 10613 10614 10616 10617 10619 10621 10624 10626 10628 10631 10634 10636 10638 10640 10642 10644 10646 10647 10649 10650 10650 10652 10653 10655 10656 10658 10659 10661 10662 10664 10666 10668 10670 10672 10673 10675 10676 10677
10608 10608 10607 10607 10607 10607 10606 10606 10605 10605 10604 10604 10603 10603 10602 10602 10602 10602 10603 10603 10604 10605 10605 10606 10607 10608 10610 10611 10613 10614 10616 10618 10620 10622 10625 10628 10631 10632 10635 10637 10639 10640 10642 10644 10646 10647 10648 10649 10650 10652 10654 10656 10657 10657 10659 10661 10664 10666 10668 10669 10670 10672 10673
10604 10604 10603 10603 10603 10603 10603 10603 10603 10602 10602 10601 10601 10600 10600 10600 10599 10599 10599 10600 10600 10601 10602 10603 10603 10604 10606 10607 10608 10610 10611 10613 10615 10617 10619 10622 10625 10627 10629 10632 10633 10635 10637 10639 10642 10643 10644 10645 10646 10648 10649 10651 10652 10653 10654 10657 10659 10661 10663 10665 10666 10667 10669
10598 10598 10598 10599 10599 10599 10600 10600 10600 10599 10599 10599 10598 10598 10598 10597 10597 10596 10596 10597 10597 10598 10598 10599 10600 10601 10602 10603 10604 10605 10607 10608 10610 10611 10614 10616 10619 10621 10623 10626 10628 10630 10632 10634 10636 10638 10639 10641 10642 10643 10644 10646 10648 10649 10650 10652 10655 10656 10658 10660 10662 10663 10665
10592 10593 10593 10593 10594 10595 10595 10596 10596 10596 10596 10595 10595 10595 10595 10594 10594 10594 10594 10594 10594 10594 10595 10595 10596 10597 10598 10599 10600 10601 10603 10604 10605 10607 10609 10611 10613 10615 10617 10620 10623 10625 10627 10628 10631 10633 10635 10636 10638 10639 10639 10641 10643 10645 10646 10648 10649 10650 10653 10655 10657 10658 10660
10587 10587 10587 10587 10588 10589 10589 10590 10591 10592 10592 10592 10592 10591 10591 10591 10591 10591 10591 10591 10591 10591 10592 10592 10593 10594 10594 10595 10596 10597 10598 10600 10601 10602 10604 10606 10608 10610 10611 10614 10617 10619 10621 10623 10625 10627 10629 10631 10633 10634 10635 10636 10637 10639 10641 10644 10645 10645 10647 10649 10652 10654 10656
10582 10581 10581 10581 10581 10582 10583 10584 10585 10586 10587 10588 10588 10588 10588 10588 10587 10588 10588 10588 10588 10588 10589 10589 10590 10590 10591 10592 10592 10593 10594 10595 10596 10598 10599 10601 10603 10604 10606 10608 10611 10613 10615 10617 10619 10621 10623 10626 10628 10629 10630 10631 10632 10633 10635 10639 10640 10640 10642 10644 10647 10648 10649
10576 10575 10575 10575 10575 10575 10576 10577 10579 10580 10581 10582 10583 10584 10584 10584 10584 10584 10584 10585 10585 10585 10585 10585 10586 10586 10587 10588 10588 10589 10590 10591 10592 10593 10594 10596 10597 10599 10601 10603 10605 10607 10609 10611 10613 10615 10617 10620 10622 10623 10625 10626 10627 10628 10630 10632 10634 10635 10637 10639 10640 10641 10642
10571 10569 10569 10569 10569 10569 10570 10571 10572 10574 10575 10576 10578 10579 10580 10580 10580 10581 10581 10581 10581 10581 10581 10581 10581 10582 10582 10583 10584 10585 10586 10586 10587 10588 10590 10591 10592 10594 10595 10597 10599 10601 10603 10605 10607 10609 10611 10613 10615 10617 10619 10620 10622 10623 10624 10626 10628 10629 10631 10633 10633 10635 10636
10565 10564 10563 10563 10563 10562 10563 10565 10566 10567 10569 10570 10572 10573 10574 10575 10576 10576 10577 10577 10577 10577 10577 10577 10577 10577 10578 10578 10579 10580 10581 10581 10582 10583 10585 10586 10587 10589 10590 10591 10593 10595 10597 10598 10600 10602 10604 10606 10608 10611 10612 10613 10616 10618 10620 10620 10621 10623 10626 10627 10627 10629 10630
10559 10558 10557 10556 10556 10556 10557 10558 10560 10561 10562 10564 10566 10566 10567 10569 10570 10571 10571 10572 10572 10572 10572 10572 10572 10572 10573 10573 10574 10575 10575 10576 10577 10578 10579 10580 10582 10583 10584 10585 10587 10589 10590 10592 10593 10595 10597 10599 10601 10603 10605 10606 10608 10611 10614 10615 10615 10617 10620 10621 10621 10622 10623
10553 10553 10551 10549 10549 10549 10550 10552 10554 10556 10557 10558 10559 10560 10561 10562 10563 10564 10565 10566 10566 10566 10566 10566 10567 10567 10567 10568 10569 10569 10570 10571 10572 10573 10574 10575 10576 10577 10578 10579 10580 10582 10583 10585 10586 10587 10589 10591 10593 10595 10598 10600 10601 10604 10606 10609 10610 10611 10613 10615 10615 10616 10617
10546 10546 10545 10544 10543 10543 10545 10547 10548 10550 10551 10552 10552 10553 10554 10555 10556 10557 10559 10560 10560 10560 10560 10560 10560 10561 10561 10562 10563 10564 10565 10565 10566 10567 10568 10569 10570 10570 10571 10572 10573 10575 10576 10578 10579 10581 10582 10584 10586 10587 10590 10592 10594 10596 10598 10601 10603 10605 10607 10609 10610 10610 10611
10539 10539 10539 10539 10537 10537 10539 10542 10543 10544 10545 10546 10546 10547 10547 10548 10549 10550 10551 10552 10552 10552 10552 10552 10552 10553 10554 10555 10556 10557 10558 10559 10560 10561 10562 10562 10563 10564 10565 10566 10567 10568 10569 10571 10573 10574 10576 10578 10579 10581 10582 10584 10586 10588 10590 10593 10595 10597 10599 10601 10603 10604 10604
10533 10532 10533 10533 10532 10532 10534 10536 10538 10539 10539 10540 10540 10540 10541 10542 10543 10543 10544 10543 10543 10543 10543 10543 10544 10545 10546 10547 10548 10549 10551 10552 10553 10554 10555 10555 10556 10558 10558 10559 10560 10561 10563 10564 10566 10568 10570 10571 10573 10575 10576 10577 10579 10580 10582 10584 10586 10588 10590 10592 10595 10597 10598
10526 10525 10524 10525 10525 10526 10529 10531 10532 10533 10532 10532 10533 10533 10533 10535 10536 10537 10536 10534 10533 10533 10534 10534 10535 10536 10536 10537 10538 10540 10541 10543 10544 10545 10547 10548 10550 10551 10551 10552 10553 10554 10555 10557 10559 10561 10562 10564 10565 10567 10569 10570 10572 10573 10574 10576 10578 10580 10582 10583 10585 10588 10590
10519 10517 10515 10514 10515 10518 10522 10524 10525 10525 10524 10524 10525 10524 10525 10527 10530 10530 10528 10527 10525 10526 10527 10527 10527 10527 10527 10528 10529 10531 10532 10534 10535 10537 10539 10541 10542 10543 10544 10545 10546 10547 10548 10550 10551 10553 10555 10556 10558 10559 10561 10562 10564 10565 10567 10568 10570 10572 10574 10575 10577 10579 10581
10511 10509 10506 10507 10508 10511 10515 10516 10516 10516 10515 10516 10517 10516 10517 10520 10522 10522 10521 10520 10519 10519 10520 10521 10520 10518 10518 10519 10521 10522 10524 10526 10528 10529 10531 10533 10534 10535 10536 10537 10538 10539 10541 10543 10544 10546 10547 10549 10550 10552 10553 10554 10556 10557 10559 10560 10562 10563 10565 10567 10569 10570 10572
10503 10502 10501 10501 10503 10505 10507 10508 10508 10507 10507 10508 10509 10509 10509 10511 10514 10514 10512 10512 10512 10512 10513 10513 10512 10509 10509 10511 10514 10515 10517 10520 10521 10522 10523 10524 10525 10526 10527 10529 10530 10531 10533 10535 10536 10538 10539 10540 10542 10544 10545 10546 10548 10549 10550 10552 10553 10555 10556 10557 10559 10561 10563
10494 10495 10495 10496 10497 10498 10499 10500 10501 10500 10500 10500 10501 10502 10502 10503 10505 10506 10505 10504 10504 10505 10507 10507 10504 10502 10501 10502 10506 10509 10511 10513 10514 10515 10515 10516 10517 10517 10518 10520 10522 10523 10524 10526 10528 10529 10530 10532 10533 10535 10536 10538 10539 10541 10542 10543 10545 10546 10547 10548 10550 10552 10554
10487 10488 10488 10489 10490 10491 10492 10493 10493 10494 10494 10493 10493 10495 10495 10496 10496 10497 10497 10498 10497 10497 10498 10498 10497 10497 10495 10493 10496 10501 10504 10505 10506 10507 10508 10509 10510 10510 10510 10511 10513 10515 10516 10518 10520 10521 10522 10523 10524 10526 10527 10529 10530 10532 10533 10535 10536 10537 10539 10539 10540 10542 10544
10480 10481 10481 10482 10483 10484 10485 10485 10486 10486 10486 10487 10487 10487 10488 10489 10489 10489 10489 10491 10491 10490 10490 10490 10490 10490 10489 10487 10487 10489 10493 10495 10496 10499 10501 10501 10502 10502 10502 10504 10505 10507 10508 10510 10511 10512 10513 10514 10515 10517 10519 10521 10522 10523 10524 10526 10527 10529 10530 10531 10531 10533 10535
10472 10473 10474 10475 10475 10476 10477 10477 10478 10478 10479 10479 10479 10480 10481 10481 10481 10481 10482 10483 10485 10484 10483 10482 10483 10483 10482 10482 10481 10481 10482 10483 10485 10488 10491 10492 10493 10494 10494 10495 10497 10499 10500 10501 10502 10503 10504 10504 10506 10507 10510 10512 10513 10514 10515 10516 10518 10520 10521 10522 10523 10523 10525
10464 10465 10466 10467 10467 10468 10468 10469 10469 10470 10470 10471 10472 10472 10473 10473 10473 10474 10474 10475 10477 10477 10476 10475 10475 10475 10475 10476 10476 10474 10474 10474 10476 10477 10479 10481 10483 10484 10485 10486 10488 10489 10490 10491 10492 10493 10494 10495 10496 10498 10500 10501 10502 10503 10505 10506 10508 10510 10512 10513 10513 10513 10514
10456 10457 10457 10458 10459 10459 10460 10460 10460 10461 10462 10463 10464 10464 10465 10465 10465 10466 10467 10468 10468 10469 10469 10468 10467 10467 10467 10467 10467 10468 10467 10467 10469 10468 10467 10468 10470 10472 10475 10477 10478 10480 10480 10481 10482 10483 10484 10485 10486 10488 10489 10490 10492 10493 10494 10496 10497 10499 10501 10502 10503 10503 10504
10448 10448 10448 10449 10449 10450 10451 10451 10452 10452 10453 10453 10454 10455 10456 10457 10457 10458 10459 10460 10460 10461 10461 10461 10459 10458 10457 10456 10457 10460 10459 10459 10461 10460 10459 10459 10459 10459 10463 10466 10469 10471 10471 10471 10472 10473 10474 10475 10476 10478 10480 10480 10481 10482 10484 10485 10486 10487 10489 10491 10492 10492 10492
10439 10439 10439 10439 10440 10440 10441 10441 10442 10442 10443 10444 10445 10445 10446 10447 10448 10449 10451 10451 10452 10453 10454 10452 10450 10447 10447 10446 10447 10450 10451 10451 10452 10452 10451 10452 10451 10450 10452 10455 10457 10460 10460 10461 10462 10462 10463 10464 10466 10468 10469 10471 10472 10472 10473 10474 10475 10476 10477 10479 10481 10482 10481
10428 10429 10429 10429 10430 10430 10431 10431 10432 10432 10432 10433 10434 10435 10437 10438 10439 10440 10441 10442 10443 10444 10444 10443 10439 10436 10437 10438 10439 10440 10441 10441 10443 10444 10445 10445 10445 10444 10444 10445 10446 10447 10449 10450 10451 10452 10453 10454 10456 10457 10458 10460 10461 10461 10462 10462 10463 10464 10466 10467 10469 10471 10471
10417 10417 10418 10419 10419 10420 10421 10421 10422 10422 10422 10423 10423 10425 10426 10428 10429 10431 10431 10430 10430 10431 10432 10432 10430 10428 10429 10430 10430 10430 10431 10432 10433 10435 10436 10436 10436 10437 10437 10436 10436 10436 10437 10439 10440 10441 10442 10443 10444 10445 10446 10448 10448 10449 10449 10450 10451 10453 10454 10455 10457 10458 10459
10404 10405 10406 10407 10408 10409 10410 10410 10410 10411 10412 10412 10413 10414 10416 10417 10420 10420 10419 10418 10418 10418 10418 10419 10420 10420 10420 10420 10420 10420 10422 10423 10423 10423 10424 10425 10425 10427 10427 10426 10426 10426 10426 10428 10428 10429 10430 10430 10431 10432 10434 10435 10436 10436 10436 10437 10439 10441 10442 10443 10444 10445 10446
10392 10394 10395 10396 10396 10396 10397 10397 10398 10399 10400 10401 10402 10404 10406 10408 10409 10408 10407 10406 10406 10406 10405 10406 10408 10409 10409 10409 10408 10409 10411 10412 10412 10413 10413 10413 10413 10414 10415 10415 10415 10415 10416 10416 10416 10417 10418 10418 10418 10420 10421 10423 10424 10423 10423 10424 10426 10428 10429 10430 10430 10431 10432
10381 10382 10383 10383 10383 10383 10383 10383 10384 10385 10387 10388 10390 10393 10395 10397 10397 10396 10395 10395 10395 10395 10395 10394 10395 10396 10398 10398 10398 10398 10399 10400 10401 10402 10402 10402 10401 10401 10402 10403 10403 10404 10404 10405 10404 10405 10405 10405 10406 10408 10410 10411 10412 10411 10411 10412 10414 10414 10415 10416 10416 10417 10418
10370 10371 10371 10372 10372 10371 10371 10370 10370 10371 10373 10375 10377 10381 10384 10384 10384 10384 10383 10383 10383 10384 10384 10384 10384 10385 10386 10387 10388 10388 10389 10389 10390 10390 10390 10390 10389 10390 10391 10391 10391 10392 10392 10392 10392 10392 10392 10393 10395 10397 10397 10398 10398 10398 10399 10400 10400 10401 10401 10402 10402 10403 10405
10359 10360 10360 10360 10360 10359 10359 10358 10357 10358 10360 10362 10364 10368 10371 10372 10371 10371 10371 10370 10371 10372 10372 10373 10374 10375 10376 10377 10378 10378 10378 10379 10378 10377 10377 10377 10377 10378 10379 10380 10380 10380 10380 10380 10379 10380 10381 10382 10383 10384 10383 10384 10385 10385 10386 10386 10387 10387 10388 10389 10390 10390 10391
10348 10348 10348 10347 10347 10346 10346 10347 10347 10347 10348 10349 10352 10356 10358 10358 10357 10356 10357 10357 10358 10359 10361 10362 10364 10365 10366 10367 10367 10367 10367 10367 10366 10365 10364 10365 10365 10365 10366 10368 10368 10368 10367 10367 10367 10368 10369 10370 10370 10370 10370 10370 10371 10372 10373 10373 10374 10374 10375 10376 10377 10378 10378
10335 10335 10335 10334 10334 10333 10334 10336 10337 10337 10337 10339 10342 10344 10344 10344 10343 10343 10344 10344 10345 10347 10349 10351 10353 10354 10356 10356 10356 10355 10354 10354 10353 10353 10353 10353 10353 10353 10354 10355 10356 10356 10356 10356 10356 10356 10357 10357 10357 10357 10356 10357 10357 10358 10359 10360 10361 10362 10363 10363 10364 10365 10365
10322 10321 10321 10321 10322 10323 10324 10326 10327 10328 10328 10330 10331 10332 10331 10330 10331 10331 10331 10332 10334 10336 10337 10339 10341 10342 10343 10343 10342 10342 10342 10342 10342 10342 10342 10342 10342 10342 10343 10344 10345 10344 10344 10344 10343 10343 10344 10344 10344 10344 10344 10344 10344 10345 10346 10347 10347 10349 10350 10351 10351 10352 10352